Location: El Águila
(10.4167°N, 66.7167°W)
Time: 05:46:51
(UTC+00:00)

USA 229 DEB - Pass Details

Date: 02 October 2022
Orbit: 924 x 1288 km, 63.4° (Epoch: 24 November)

Event Time Altitude Azimuth Distance (km) Brightness Sun altitude
Rises 23:14:11 0° 349° (N) 4,144 6.9 -15.0°
Reaches altitude 10° 23:17:07 10° 357° (N) 3,215 6.2 -15.7°
Maximum altitude 23:24:25 41° 65° (ENE) 1,775 4.4 -17.5°
Enters shadow 23:29:24 20° 122° (ESE) 2,578 5.2 -18.7°
